DW7780 Weather Reports


time (UTC)temp
F
wind
direction
speed
knots
gust
knots
rain 1hr
in
rain 24hr
in
rain mn
in
humidity
%
barometer
mb
20260901194532 86 0 0.0 3.5 0.00 0.01 0.01 74 1013.8
20260901193034 86 0 0.0 5.2 0.00 0.01 0.01 72 1013.8
20260901191551 85 0 0.0 0.0 0.00 0.01 0.01 73 1013.8
20260901190034 85 0 0.0 3.5 0.00 0.01 0.01 75 1013.9
20260901184539 85 0 0.0 0.0 0.00 0.01 0.01 76 1014.1
20260901183045 84 0 0.0 0.0 0.00 0.01 0.01 76 1014.1
20260901181534 83 0 0.0 0.0 0.00 0.01 0.01 77 1014.2
20260901180031 83 0 0.0 0.0 0.00 0.01 0.01 78 1014.4
20260901174534 82 0 0.0 0.0 0.00 0.01 0.01 77 1014.4
20260901173031 81 0 0.0 0.0 0.00 0.01 0.01 82 1014.4
20260901171533 80 0 0.0 0.0 0.00 0.01 0.01 84 1014.6
20260901170035 79 0 0.0 0.0 0.00 0.01 0.01 85 1014.9
20260901164541 78 0 0.0 0.0 0.00 0.01 0.01 89 1015.3
20260901163032 78 0 0.0 0.0 0.00 0.01 0.01 90 1015.6
20260901161548 78 0 0.0 0.0 0.00 0.01 0.01 88 1015.9
20260901160032 78 0 0.0 0.0 0.00 0.01 0.01 90 1015.9
20260901154545 77 0 0.0 0.0 0.00 0.01 0.01 93 1015.8
20260901153033 77 0 0.0 0.0 0.00 0.01 0.01 92 1015.8
20260901151534 77 0 0.0 0.0 0.00 0.01 0.01 91 1015.9
20260901150039 77 0 0.0 1.7 0.00 0.01 0.01 91 1015.9
20260901144540 77 0 0.0 0.9 0.00 0.01 0.01 90 1015.8
20260901143034 76 0 0.0 1.7 0.00 0.01 0.01 91 1015.8
20260901141536 76 0 0.0 1.7 0.00 0.01 0.01 93 1015.9
20260901140032 75 0 0.0 0.9 0.00 0.01 0.01 96 1015.9
20260901134531 74 0 0.0 0.0 0.00 0.01 0.01 98 1015.8
20260901133035 73 0 0.0 0.0 0.00 0.01 0.01 98 1015.9
20260901131533 73 0 0.0 0.0 0.00 0.01 0.01 98 1015.9
20260901130031 72 0 0.0 0.0 0.00 0.01 0.01 98 1015.9
20260901124532 72 0 0.0 0.0 0.00 0.01 0.01 98 1016.2
20260901123032 71 0 0.0 0.0 0.00 0.01 0.01 98 1015.9
20260901121532 70 0 0.0 0.0 0.00 0.01 0.01 98 1015.9
20260901120033 70 0 0.0 0.0 0.00 0.01 0.01 98 1015.8
20260901114541 69 0 0.0 0.0 0.00 0.01 0.01 98 1016.0
20260901113031 69 0 0.0 0.0 0.00 0.01 0.01 97 1016.2
20260901111532 69 0 0.0 0.0 0.00 0.01 0.01 97 1016.2
20260901110033 69 0 0.0 0.0 0.00 0.01 0.01 97 1016.1
20260901104532 69 0 0.0 0.0 0.00 0.01 0.01 97 1016.1
20260901103030 69 0 0.0 0.0 0.00 0.01 0.01 97 1016.0
20260901101533 69 0 0.0 0.0 0.01 0.01 0.01 97 1016.0
20260901100031 69 0 0.0 0.0 0.01 0.01 0.01 97 1016.1
20260901094538 69 0 0.0 0.0 0.01 0.01 0.01 97 1016.0
20260901093033 69 0 0.0 0.0 0.00 0.00 0.00 97 1016.1
20260901091534 69 0 0.0 0.0 0.00 0.00 0.00 97 1015.9
20260901090035 69 0 0.0 0.0 0.00 0.00 0.00 97 1016.2
20260901084532 69 0 0.0 0.0 0.00 0.01 0.00 97 1016.3
20260901083032 69 0 0.0 0.0 0.00 0.01 0.00 97 1016.4
20260901081534 69 0 0.0 0.0 0.00 0.01 0.00 97 1016.4
20260901080034 69 0 0.0 0.0 0.00 0.01 0.00 97 1016.3
20260901074539 69 0 0.0 0.0 0.00 0.01 0.00 97 1016.2
20260901073033 69 0 0.0 0.0 0.00 0.01 0.00 97 1016.3
20260901071532 69 0 0.0 0.0 0.00 0.01 0.00 97 1016.3
20260901070031 69 0 0.0 0.0 0.00 0.01 0.00 97 1016.4
20260901064532 69 0 0.0 0.0 0.00 0.01 0.00 97 1016.5
20260901063031 69 0 0.0 0.0 0.00 0.01 0.00 97 1016.7
20260901061534 69 0 0.0 0.0 0.00 0.01 0.00 97 1016.8
20260901060030 69 0 0.0 0.0 0.00 0.01 0.00 97 1017.2
20260901054531 69 0 0.0 0.0 0.00 0.01 0.00 97 1017.3
20260901053036 69 0 0.0 0.0 0.00 0.01 0.00 97 1017.5
20260901051532 69 0 0.0 0.0 0.00 0.01 0.00 97 1017.3
20260901050031 69 0 0.0 0.0 0.00 0.01 0.00 97 1017.4
20260901044546 69 0 0.0 0.0 0.00 0.01 0.00 97 1017.4
20260901043034 69 0 0.0 0.0 0.00 0.01 0.00 96 1017.5
20260901041533 69 0 0.0 0.0 0.00 0.01 0.00 96 1017.7
20260901040037 69 0 0.0 0.0 0.00 0.01 0.00 96 1017.9
20260901034537 69 0 0.0 0.0 0.00 0.07 0.01 95 1018.0
20260901033050 69 0 0.0 0.0 0.00 0.07 0.01 95 1018.1
20260901031533 69 0 0.0 0.0 0.00 0.07 0.01 95 1018.2
20260901030035 69 0 0.0 0.0 0.00 0.07 0.01 95 1018.3
20260901024532 69 0 0.0 0.0 0.00 0.07 0.01 94 1018.2
20260901023034 69 0 0.0 0.0 0.00 0.07 0.01 94 1018.4
20260901021541 69 0 0.0 0.0 0.00 0.07 0.01 94 1018.4
20260901020034 69 0 0.0 0.0 0.00 0.07 0.01 93 1018.4
20260901014531 69 0 0.0 0.0 0.00 0.14 0.01 93 1018.4
20260901013045 69 0 0.0 0.0 0.00 0.14 0.01 92 1018.4
20260901011544 70 0 0.0 0.0 0.00 0.14 0.01 92 1018.5
20260901010034 70 0 0.0 0.0 0.00 0.14 0.01 91 1018.5
20260901004534 70 0 0.0 0.0 0.00 0.14 0.01 91 1018.3
20260901003039 70 0 0.0 0.0 0.00 0.14 0.01 91 1018.2
20260901001534 71 0 0.0 0.0 0.00 0.14 0.01 90 1018.1
20260901000035 71 0 0.0 0.0 0.00 0.14 0.01 90 1017.9
20260831234530 72 0 0.0 0.0 0.00 0.14 0.01 89 1017.9
20260831233030 72 0 0.0 0.0 0.00 0.14 0.01 88 1018.1
20260831231531 73 0 0.0 0.0 0.00 0.14 0.01 88 1018.2
20260831230034 73 0 0.0 0.0 0.00 0.14 0.01 87 1018.2
20260831224531 74 0 0.0 0.0 0.00 0.14 0.01 87 1018.3
20260831223037 74 0 0.0 0.0 0.00 0.14 0.01 87 1018.4
20260831221541 74 0 0.0 0.0 0.00 0.14 0.01 86 1018.5
20260831220034 74 0 0.0 0.0 0.00 0.14 0.01 86 1018.5
20260831214534 74 0 0.0 0.0 0.00 0.14 0.01 87 1018.7
20260831213030 74 0 0.0 0.0 0.00 0.14 0.01 86 1018.7
20260831211537 75 0 0.0 0.0 0.00 0.14 0.01 85 1018.6
20260831210031 75 0 0.0 0.0 0.00 0.14 0.01 85 1018.9
20260831204531 75 0 0.0 0.0 0.00 0.14 0.01 85 1018.9
20260831203043 75 0 0.0 0.0 0.00 0.14 0.01 85 1019.1
20260831201543 75 0 0.0 0.0 0.00 0.14 0.01 83 1019.2
20260831200034 75 0 0.0 0.0 0.00 0.14 0.01 84 1019.4